Location: Krakow
(50.0830°N, 19.9170°E)
Time: 00:03:49
(UTC+02:00)

CUBESAT XI-V - Visible Passes

Search period start: 31 May 2024 00:00
Search period end: 10 June 2024 00:00
Orbit: 657 x 680 km, 98.2° (Epoch: 30 May)

Date Brightness Start Highest point End Pass type
(mag) Time Alt. Az. Time Alt. Az. Time Alt. Az.
31 May ? 01:58:54 10° SE 02:03:13 46° ENE 02:07:33 10° N visible
31 May ? 03:36:50 10° SSW 03:40:29 24° W 03:44:10 10° NW visible
01 Jun ? 00:56:36 10° E 00:58:59 14° NE 01:01:23 10° NNE visible
01 Jun ? 02:31:08 12° SSE 02:35:23 89° E 02:39:57 10° NNW visible
02 Jun ? 01:27:12 10° ESE 01:30:52 25° ENE 01:34:33 10° N visible
02 Jun ? 03:03:42 12° S 03:07:42 46° W 03:12:05 10° NNW visible
03 Jun ? 01:58:35 10° SE 02:02:52 45° ENE 02:07:12 10° N visible
03 Jun ? 03:36:29 10° SSW 03:40:09 24° W 03:43:51 10° NW visible
04 Jun ? 00:56:17 10° E 00:58:38 14° NE 01:01:00 10° NNE visible
04 Jun ? 02:30:40 11° SSE 02:35:01 88° E 02:39:36 10° NNW visible
05 Jun ? 01:26:51 10° ESE 01:30:30 25° ENE 01:34:10 10° N visible
05 Jun ? 03:03:14 11° S 03:07:19 47° W 03:11:43 10° NNW visible
06 Jun ? 01:58:12 10° SE 02:02:30 45° ENE 02:06:50 10° N visible
06 Jun ? 03:36:05 10° SSW 03:39:46 24° W 03:43:28 10° NW visible
07 Jun ? 00:55:56 10° E 00:58:16 14° NE 01:00:36 10° NNE visible
07 Jun ? 02:30:11 10° SSE 02:34:38 87° E 02:39:13 10° NNW visible
08 Jun ? 01:26:28 10° ESE 01:30:06 24° ENE 01:33:46 10° N visible
08 Jun ? 03:02:44 11° S 03:06:55 47° W 03:11:20 10° NNW visible
09 Jun ? 01:57:48 10° SE 02:02:05 44° ENE 02:06:25 10° N visible
09 Jun ? 03:35:38 10° SSW 03:39:20 25° W 03:43:04 10° NW visible
